Torna al catalogo

STARLINK-30248

AttivoComunicazioniVLEO
NORAD 57610·PAYLOAD·🇺🇸 United States

Lanciato Aug 11, 2023 da Cape Canaveral Space Force Station

Loading…

Prossimi Passaggi (prossime 24 ore)

TLE

AggiornatoSource: CelesTrak SupGP

Epoca: Sep 15, 2026, 01:42 UTC

1 57610C 23119J   26258.07131944  .00038721  00000+0  14022-2 0  2586
2 57610  43.0032  91.6768 0001590 273.2715 108.0662 15.27565581    11

Traccia STARLINK-30248 in tempo reale con AllMySat

Download on the App Store